{"data":{"norad_id":46458,"epoch":"2026-09-19T22:19:10.094016Z","epoch_age_seconds":122560,"freshness":"FRESH","line1":"1 46458U 20065E   26262.92997794  .00076060  00000+0  56879-3 0  9990","line2":"2 46458  97.2043 315.2788 0010812 149.4583 210.7313 15.72385327334532","mean_motion":15.72385327,"eccentricity":0.0010812,"inclination_deg":97.2043,"raan_deg":315.2788,"arg_perigee_deg":149.4583,"mean_anomaly_deg":210.7313,"bstar":0.00056879,"rev_number":33453,"period_min":91.580605292687,"perigee_km":344.80513292477,"apogee_km":359.35855815636,"semimajor_km":6730.2188455406,"source":"CELESTRAK","updated_at":"2026-09-20T09:00:14.757340Z"}}